Weather History for Ashtabula, OH

Change the Weather History Date:

Sunday, April 7, 2013

  Actual Average (KYNG) Record (KYNG)
Temperature  
Mean Temperature 55 °F 45 °F  
Max Temperature 71 °F 56 °F 81 °F (1991)
Min Temperature 37 °F 35 °F 18 °F (1972)
Degree Days  
Heating Degree Days 10 20  
Month to date heating degree days 147  
Since 1 July heating degree days 5671  
Cooling Degree Days 0 0  
Month to date cooling degree days 0  
Year to date cooling degree days 1  
Growing Degree Days 5 (Base 50)    
Moisture  
Dew Point 33 °F    
Average Humidity 45    
Maximum Humidity 79    
Minimum Humidity 25    
Precipitation  
Precipitation 0.00 in 0.12 in 0.70 in (1956)
Month to date precipitation 0.81  
Year to date precipitation 8.45  
Snow  
Snow 0.00 in 0.20 in - ()
Month to date snowfall 1.3  
Since 1 July snowfall 61.0  
Snow Depth -    
Sea Level Pressure  
Sea Level Pressure 29.89 in    
Wind  
Wind Speed 14 mph (WSW)    
Max Wind Speed 24 mph    
Max Gust Speed 32 mph    
Visibility 10 miles    
Events      
T = Trace of Precipitation, MM = Missing Value Source: NWS Daily Summary

Daily Weather History Graph

Daily Weather History Graph

Search for Another Location

Airport:

Trip Planner

Search our weather history database for the weather conditions in past years. The results will help you decide how hot, cold, wet, or windy it might be!

Date:

Astronomy

Apr. 07, 2013 Rise Set
Actual Time 6:55 AM EDT 7:55 PM EDT
Civil Twilight 6:26 AM EDT 8:23 PM EDT
Nautical Twilight 5:53 AM EDT 8:57 PM EDT
Astronomical Twilight 5:17 AM EDT 9:32 PM EDT
Moon 5:14 AM EDT (4/7) 5:23 PM EDT (4/7)
Length of Visible Light 13h 56m
Length of Day
12h 59m
Waning Crescent, 8% of the Moon is Illuminated
Apr 7
Waning Crescent
Apr 10
New
Apr 18
First Quarter
Apr 25
Full
May 2
Last Quarter

Hourly Weather History & Observations

Time (EDT) Temp. Windchill Dew Point Humidity Pressure Visibility Wind Dir Wind Speed Gust Speed Precip Events Conditions
12:53 AM 51.1 °F - 16.0 °F 25% 29.93 in 10.0 mi SSE 11.5 mph 19.6 mph N/A   Clear
1:53 AM 50.0 °F - 18.0 °F 28% 29.91 in 10.0 mi South 12.7 mph - N/A   Clear
2:53 AM 51.1 °F - 19.0 °F 28% 29.86 in 10.0 mi South 13.8 mph 23.0 mph N/A   Clear
3:53 AM 53.1 °F - 21.9 °F 30% 29.84 in 10.0 mi South 16.1 mph 26.5 mph N/A   Unknown
5:53 AM 55.0 °F - 27.0 °F 34% 29.80 in 10.0 mi South 18.4 mph 26.5 mph N/A   Mostly Cloudy
6:53 AM 55.0 °F - 30.0 °F 38% 29.79 in 10.0 mi South 19.6 mph 27.6 mph N/A   Clear
7:53 AM 55.9 °F - 30.9 °F 39% 29.79 in 10.0 mi South 18.4 mph 26.5 mph N/A   Overcast
8:53 AM 57.9 °F - 33.1 °F 39% 29.79 in 10.0 mi SSW 16.1 mph 25.3 mph N/A   Mostly Cloudy
9:53 AM 62.1 °F - 35.1 °F 37% 29.78 in 10.0 mi SW 23.0 mph 31.1 mph N/A   Partly Cloudy
10:53 AM 64.9 °F - 37.9 °F 37% 29.78 in 10.0 mi WSW 24.2 mph 32.2 mph N/A   Clear
11:53 AM 66.9 °F - 39.0 °F 36% 29.79 in 10.0 mi SW 18.4 mph 27.6 mph N/A   Partly Cloudy
12:53 PM 69.1 °F - 39.0 °F 33% 29.80 in 10.0 mi West 16.1 mph 28.8 mph N/A   Scattered Clouds
1:29 PM 64.4 °F - 42.8 °F 45% 29.83 in 10.0 mi WNW 16.1 mph 25.3 mph N/A   Scattered Clouds
1:53 PM 62.1 °F - 43.0 °F 50% 29.84 in 10.0 mi WNW 16.1 mph 27.6 mph N/A   Clear
2:53 PM 61.0 °F - 42.1 °F 50% 29.87 in 10.0 mi West 21.9 mph 29.9 mph N/A   Clear
3:53 PM 60.1 °F - 42.1 °F 51% 29.89 in 10.0 mi WNW 20.7 mph 26.5 mph N/A   Clear
4:53 PM 57.9 °F - 39.9 °F 51% 29.91 in 10.0 mi WNW 12.7 mph 23.0 mph N/A   Clear
5:53 PM 55.9 °F - 37.9 °F 51% 29.94 in 10.0 mi WNW 15.0 mph 20.7 mph N/A   Clear
6:53 PM 53.1 °F - 36.0 °F 52% 29.97 in 10.0 mi NW 8.1 mph - N/A   Clear
7:53 PM 48.9 °F - 34.0 °F 56% 29.99 in 10.0 mi NNW 8.1 mph - N/A   Clear
8:53 PM 46.0 °F 43.9 °F 34.0 °F 63% 30.02 in 10.0 mi North 4.6 mph - N/A   Clear
9:53 PM 43.0 °F 41.3 °F 32.0 °F 65% 30.04 in 10.0 mi North 3.5 mph - N/A   Clear
10:53 PM 41.0 °F - 32.0 °F 70% 30.05 in 10.0 mi Calm Calm - N/A   Clear
11:53 PM 37.0 °F - 30.9 °F 79% 30.05 in 9.0 mi Calm Calm - N/A   Clear